STARLINK-32212 (60256 NORAD) Tracking and Keplerian Element Data

This shows tracking and keplerian element data for the satellite.

Feedback or suggestion? Click here.




ElementValue
Catalog60256
NameSTARLINK-32212
Epoch Orbit1306
Epoch Day286.28329208
Epoch Year2024
RAAN280.7232
Inclination53.1581
Eccentricity9.86E-05
Argument of Perigee129.4145
Mean Anonmoly230.6945
Mean Motion15.34216457
Decay Rate0.00020764
L11 60256U 24131B 24286.28329208 .00020764 00000+0 62759-3 0 9996
L22 60256 53.1581 280.7232 0000986 129.4145 230.6945 15.34216457 13064



Live tracking and technical data element details for STARLINK-32212 (NORAD 60256). STARLINK-32212 can be tracked NOW for your location showing map with azimuth and elevation plus other details from your city location.







IsCatalogInMostPopularTable: catalog: 60256, numindb: 13
Update: records affected: 1



GetName: 60256 STARLINK-32212

Hit Count: updated at: Thu, 23 Jan 2025 15:23:28 GMT